Total_Precipitation_Accumulation
0.07 0.17 0.40 0.48 0.46 0.45 0.51 0.51 0.49 0.49 0.50 0.53 0.52 0.53 0.51 0.50 0.45 0.44 0.46 0.47 0.46 0.51 0.62 0.72 0.74 0.70 0.64 0.60 0.57 0.51 0.48 0.43 0.38 0.32 0.33 0.37 0.36 0.31 0.26 0.24 0.21 0.31 0.40
0.06 0.15 0.36 0.41 0.42 0.46 0.50 0.47 0.43 0.44 0.45 0.48 0.47 0.49 0.51 0.48 0.46 0.46 0.48 0.49 0.50 0.54 0.62 0.70 0.71 0.69 0.61 0.58 0.59 0.53 0.45 0.34 0.27 0.22 0.21 0.23 0.31 0.34 0.32 0.30 0.28 0.37 0.38
0.06 0.14 0.27 0.36 0.39 0.48 0.50 0.44 0.40 0.40 0.40 0.44 0.47 0.49 0.50 0.48 0.47 0.48 0.48 0.49 0.54 0.60 0.64 0.67 0.62 0.58 0.57 0.57 0.54 0.50 0.45 0.33 0.21 0.17 0.16 0.22 0.32 0.39 0.40 0.34 0.32 0.36 0.36
0.07 0.13 0.19 0.33 0.38 0.48 0.50 0.46 0.44 0.41 0.41 0.45 0.49 0.50 0.52 0.54 0.53 0.49 0.48 0.54 0.58 0.65 0.69 0.66 0.59 0.59 0.60 0.56 0.46 0.43 0.44 0.37 0.22 0.14 0.10 0.21 0.40 0.52 0.46 0.41 0.36 0.36 0.39
0.08 0.13 0.21 0.34 0.39 0.47 0.51 0.54 0.53 0.51 0.49 0.49 0.51 0.48 0.51 0.54 0.54 0.52 0.53 0.57 0.59 0.59 0.61 0.62 0.59 0.61 0.58 0.51 0.42 0.38 0.48 0.47 0.28 0.10 0.10 0.15 0.34 0.68 0.50 0.46 0.42 0.38 0.38
0.08 0.13 0.23 0.37 0.45 0.49 0.54 0.60 0.61 0.59 0.59 0.60 0.56 0.55 0.58 0.60 0.59 0.54 0.52 0.52 0.52 0.54 0.57 0.55 0.54 0.57 0.58 0.52 0.43 0.44 0.55 0.59 0.31 0.13 0.15 0.18 0.33 0.67 0.59 0.52 0.46 0.41 0.39
0.08 0.14 0.23 0.40 0.52 0.53 0.56 0.61 0.66 0.69 0.73 0.72 0.71 0.70 0.69 0.68 0.67 0.64 0.62 0.54 0.48 0.48 0.50 0.51 0.52 0.54 0.57 0.53 0.48 0.57 0.66 0.60 0.33 0.29 0.22 0.21 0.37 0.63 0.67 0.62 0.55 0.48 0.44
0.11 0.18 0.28 0.49 0.59 0.58 0.60 0.67 0.71 0.72 0.77 0.77 0.78 0.78 0.75 0.72 0.69 0.72 0.71 0.61 0.50 0.42 0.40 0.40 0.42 0.48 0.50 0.48 0.51 0.64 0.65 0.42 0.20 0.16 0.15 0.20 0.37 0.63 0.88 0.83 0.66 0.56 0.50
0.19 0.23 0.34 0.49 0.62 0.68 0.69 0.70 0.71 0.74 0.76 0.76 0.79 0.81 0.79 0.72 0.70 0.69 0.68 0.62 0.52 0.46 0.41 0.37 0.37 0.39 0.40 0.42 0.47 0.50 0.44 0.28 0.16 0.21 0.17 0.24 0.37 0.70 1.04 1.00 0.80 0.65 0.56
0.29 0.34 0.42 0.53 0.61 0.65 0.71 0.72 0.69 0.69 0.71 0.72 0.74 0.77 0.71 0.66 0.66 0.64 0.58 0.53 0.49 0.49 0.47 0.40 0.37 0.37 0.33 0.31 0.33 0.33 0.28 0.22 0.15 0.21 0.27 0.28 0.29 0.66 1.06 1.07 0.94 0.80 0.69
0.42 0.50 0.56 0.64 0.71 0.75 0.75 0.72 0.75 0.74 0.74 0.72 0.70 0.70 0.69 0.67 0.66 0.61 0.54 0.49 0.48 0.48 0.45 0.41 0.38 0.35 0.30 0.25 0.22 0.22 0.19 0.15 0.17 0.25 0.29 0.26 0.33 0.67 1.07 1.15 1.06 0.95 0.89
0.40 0.49 0.57 0.68 0.76 0.83 0.80 0.81 0.86 0.77 0.74 0.70 0.62 0.59 0.63 0.65 0.65 0.58 0.56 0.52 0.51 0.50 0.48 0.47 0.43 0.37 0.31 0.25 0.26 0.26 0.18 0.14 0.19 0.20 0.20 0.20 0.36 0.71 1.06 1.19 1.17 1.07 1.04
0.39 0.48 0.58 0.68 0.79 0.87 0.86 0.84 0.85 0.80 0.75 0.72 0.66 0.67 0.73 0.74 0.68 0.67 0.64 0.59 0.58 0.55 0.58 0.58 0.58 0.48 0.44 0.42 0.41 0.34 0.26 0.23 0.20 0.19 0.15 0.18 0.28 0.55 0.94 1.17 1.24 1.24 1.24
0.48 0.55 0.65 0.77 0.87 0.94 0.95 0.89 0.84 0.78 0.73 0.71 0.68 0.70 0.77 0.79 0.72 0.68 0.66 0.59 0.59 0.59 0.61 0.64 0.64 0.59 0.55 0.48 0.47 0.42 0.38 0.32 0.25 0.23 0.19 0.18 0.20 0.32 0.58 0.86 1.12 1.31 1.38
0.48 0.57 0.71 0.83 0.93 0.99 1.06 1.03 0.91 0.80 0.71 0.69 0.70 0.65 0.65 0.69 0.68 0.62 0.53 0.47 0.47 0.49 0.52 0.54 0.53 0.54 0.55 0.51 0.47 0.43 0.41 0.38 0.32 0.27 0.22 0.19 0.17 0.21 0.33 0.54 0.83 1.21 1.45
0.45 0.54 0.68 0.85 0.98 1.07 1.08 1.10 1.05 0.97 0.85 0.79 0.74 0.67 0.62 0.61 0.60 0.57 0.51 0.41 0.37 0.37 0.37 0.38 0.37 0.38 0.41 0.43 0.41 0.38 0.35 0.35 0.35 0.34 0.31 0.28 0.20 0.19 0.25 0.42 0.63 0.94 1.30
0.45 0.58 0.68 0.86 1.03 1.14 1.17 1.12 1.13 1.15 1.08 0.97 0.85 0.76 0.69 0.64 0.61 0.59 0.58 0.54 0.49 0.45 0.42 0.40 0.36 0.33 0.33 0.34 0.36 0.37 0.33 0.32 0.34 0.38 0.37 0.35 0.30 0.24 0.24 0.33 0.50 0.71 1.03
0.52 0.61 0.71 0.84 1.01 1.11 1.24 1.30 1.21 1.20 1.16 1.07 0.94 0.86 0.77 0.69 0.62 0.63 0.61 0.56 0.56 0.58 0.56 0.53 0.47 0.42 0.36 0.33 0.35 0.38 0.36 0.34 0.35 0.38 0.40 0.37 0.35 0.31 0.27 0.28 0.40 0.59 0.83
0.55 0.61 0.69 0.79 0.94 1.08 1.23 1.41 1.46 1.37 1.24 1.11 1.01 0.94 0.87 0.79 0.69 0.64 0.63 0.59 0.55 0.56 0.56 0.58 0.57 0.54 0.49 0.43 0.41 0.41 0.41 0.38 0.35 0.36 0.40 0.43 0.43 0.39 0.39 0.32 0.32 0.43 0.63
0.58 0.64 0.73 0.82 0.95 1.13 1.31 1.42 1.53 1.50 1.35 1.21 1.13 1.04 1.01 0.95 0.84 0.73 0.68 0.65 0.63 0.61 0.59 0.55 0.57 0.58 0.56 0.51 0.48 0.44 0.44 0.44 0.42 0.39 0.43 0.52 0.52 0.46 0.45 0.45 0.40 0.34 0.39
0.59 0.65 0.72 0.81 0.90 1.07 1.21 1.27 1.26 1.35 1.30 1.18 1.09 1.09 1.10 1.09 1.01 0.90 0.81 0.74 0.73 0.69 0.64 0.57 0.53 0.55 0.55 0.52 0.54 0.51 0.47 0.43 0.39 0.35 0.39 0.51 0.63 0.65 0.60 0.60 0.60 0.52 0.42
0.54 0.61 0.69 0.74 0.81 0.87 0.93 1.06 1.13 1.15 1.20 1.18 1.11 1.08 1.11 1.11 1.04 0.98 0.91 0.82 0.73 0.70 0.66 0.63 0.57 0.54 0.51 0.46 0.50 0.56 0.50 0.45 0.42 0.34 0.29 0.36 0.46 0.54 0.57 0.60 0.66 0.69 0.60
0.53 0.59 0.65 0.72 0.75 0.84 0.92 1.06 1.16 1.25 1.27 1.23 1.13 1.04 1.04 1.08 1.07 0.99 0.93 0.90 0.85 0.77 0.71 0.68 0.64 0.60 0.57 0.50 0.45 0.61 0.66 0.49 0.35 0.26 0.24 0.27 0.29 0.33 0.38 0.44 0.52 0.58 0.65
0.51 0.60 0.69 0.77 0.85 0.86 0.94 1.03 1.03 1.00 1.02 0.96 0.99 0.98 1.00 1.02 1.02 1.00 0.97 0.95 0.89 0.83 0.73 0.66 0.66 0.66 0.67 0.66 0.57 0.52 0.54 0.51 0.54 0.38 0.21 0.20 0.19 0.20 0.21 0.26 0.34 0.40 0.49
0.53 0.62 0.74 0.76 0.88 0.94 0.95 1.00 1.00 0.95 0.90 0.93 1.00 1.06 1.06 1.05 1.04 0.96 0.92 0.91 0.88 0.83 0.79 0.74 0.68 0.69 0.71 0.71 0.67 0.60 0.55 0.47 0.47 0.57 0.38 0.23 0.23 0.21 0.20 0.21 0.24 0.28 0.36
0.49 0.59 0.67 0.77 0.83 0.96 0.97 0.99 0.98 0.93 0.88 0.92 0.96 1.06 1.09 1.09 1.10 1.04 0.92 0.89 0.84 0.77 0.76 0.79 0.77 0.72 0.70 0.69 0.68 0.66 0.67 0.67 0.55 0.58 0.52 0.31 0.27 0.26 0.25 0.25 0.25 0.28 0.34